Location: Podia
(1.5569°N, 32.3469°E)
Time: 15:00:37
(UTC+00:00)

CZ-2C R/B - Pass Details

Date: 01 June 2020
Orbit: 640 x 704 km, 98.4° (Epoch: 04 July)

Event Time Altitude Azimuth Distance (km) Brightness Sun altitude
Rises 17:45:10 0° 3° (N) 2,991 7.4 -26.1°
Reaches altitude 10° 17:47:24 10° 359° (N) 2,090 6.6 -26.6°
Maximum altitude 17:51:51 53° 282° (WNW) 836 4.4 -27.6°
Enters shadow 17:53:42 32° 223° (SW) 1,163 5.0 -28.1°
